Powrót do katalogu

STARLINK-2742

AktywnyŁącznośćVLEO
NORAD 48688·PAYLOAD·🇺🇸 United States

Wystrzelony May 26, 2021 z Cape Canaveral Space Force Station

Loading…

Następne Przeloty (najbliższe 24 godziny)

TLE

ŚwieżeSource: CelesTrak SupGP

Epoka: Sep 14, 2026, 20:49 UTC

1 48688C 21044BC  26257.86784722  .00049762  00000+0  16010-2 0  2575
2 48688  53.1572 264.7948 0001342  84.3843 287.4640 15.31662038    16

Śledź STARLINK-2742 w czasie rzeczywistym z AllMySat

Download on the App Store